Station Historical Data
Daily Summary for October 30, 2017 Units:  Metric    English   Both
« Previous Day
Next Day »
Daily Weekly Monthly Yearly Custom
  High: Low: Average:
Temperature: 9.3 °C 4 °C 6.5 °C
Dew Point: 3.9 °C 0.4 °C 2.7 °C
Humidity: 90% 58% 77%
Wind Speed: 33.8km/h 0km/h 13.4km/h
Wind Gust: 49.9km/h - -
Wind- - West
Pressure: 1006.7 hPa 994.5 hPa -
Precipitation: 0 mm    
Historical Graphs
 
 
Tabular Data for October 30, 2017
Time Temperature Dew Point Pressure Wind Wind Speed Wind Gust Humidity Rainfall Rate (Hourly)
00:04 6.7 °C 3.8 °C 997.9 hPa WNW 11.3 km/h 20.9 km/h 82% 0 mm
00:09 6.7 °C 3.8 °C 997.5 hPa WNW 9.7 km/h 19.3 km/h 82% 0 mm
00:14 6.7 °C 3.6 °C 997.2 hPa NW 8 km/h 20.9 km/h 81% 0 mm
00:19 6.7 °C 3.6 °C 997.2 hPa NW 6.4 km/h 20.9 km/h 81% 0 mm
00:24 6.7 °C 3.6 °C 997.2 hPa NW 6.4 km/h 16.1 km/h 81% 0 mm
00:29 6.7 °C 3.7 °C 996.8 hPa West 8 km/h 16.1 km/h 81% 0 mm
00:34 6.7 °C 3.9 °C 996.8 hPa NW 11.3 km/h 19.3 km/h 82% 0 mm
00:39 6.7 °C 3.8 °C 997.2 hPa NW 16.1 km/h 19.3 km/h 82% 0 mm
00:44 6.7 °C 3.8 °C 997.2 hPa NW 11.3 km/h 19.3 km/h 82% 0 mm
00:49 6.6 °C 3.8 °C 996.5 hPa WNW 8 km/h 19.3 km/h 82% 0 mm
00:54 6.6 °C 3.7 °C 996.5 hPa NW 8 km/h 17.7 km/h 82% 0 mm
00:59 6.6 °C 3.5 °C 996.5 hPa NW 6.4 km/h 20.9 km/h 81% 0 mm
01:04 6.6 °C 3.7 °C 996.2 hPa NW 8 km/h 24.1 km/h 82% 0 mm
01:09 6.6 °C 3.5 °C 996.2 hPa West 11.3 km/h 16.1 km/h 81% 0 mm
01:14 6.6 °C 3.7 °C 996.2 hPa NNW 1.6 km/h 17.7 km/h 82% 0 mm
01:19 6.6 °C 3.7 °C 996.2 hPa WNW 8 km/h 17.7 km/h 82% 0 mm
01:24 6.6 °C 3.7 °C 995.8 hPa WNW 9.7 km/h 22.5 km/h 82% 0 mm
01:29 6.6 °C 3.7 °C 995.8 hPa WNW 9.7 km/h 22.5 km/h 82% 0 mm
01:34 6.6 °C 3.7 °C 995.8 hPa WNW 9.7 km/h 22.5 km/h 82% 0 mm
01:39 6.6 °C 3.7 °C 995.8 hPa WNW 8 km/h 17.7 km/h 82% 0 mm
01:44 6.6 °C 3.7 °C 995.8 hPa WNW 11.3 km/h 19.3 km/h 82% 0 mm
01:49 6.6 °C 3.7 °C 995.5 hPa WNW 9.7 km/h 24.1 km/h 82% 0 mm
01:54 6.6 °C 3.7 °C 995.5 hPa WNW 11.3 km/h 24.1 km/h 82% 0 mm
01:59 6.6 °C 3.7 °C 995.5 hPa WNW 11.3 km/h 22.5 km/h 82% 0 mm
02:04 6.6 °C 3.5 °C 995.5 hPa WNW 12.9 km/h 27.4 km/h 81% 0 mm
02:09 6.6 °C 3.6 °C 995.1 hPa WNW 8 km/h 17.7 km/h 81% 0 mm
02:14 6.6 °C 3.6 °C 995.1 hPa West 9.7 km/h 19.3 km/h 81% 0 mm
02:19 6.7 °C 3.6 °C 995.1 hPa WNW 6.4 km/h 24.1 km/h 81% 0 mm
02:24 6.7 °C 3.7 °C 995.1 hPa WNW 12.9 km/h 25.7 km/h 81% 0 mm
02:29 6.7 °C 3.5 °C 994.8 hPa WNW 12.9 km/h 29 km/h 80% 0 mm
02:34 6.7 °C 3.5 °C 994.8 hPa WNW 12.9 km/h 29 km/h 80% 0 mm
02:39 6.7 °C 3.5 °C 994.8 hPa West 9.7 km/h 19.3 km/h 80% 0 mm
02:44 6.7 °C 3.5 °C 994.8 hPa WNW 9.7 km/h 17.7 km/h 80% 0 mm
02:49 6.7 °C 3.5 °C 994.8 hPa NW 12.9 km/h 24.1 km/h 80% 0 mm
02:54 6.7 °C 3.5 °C 994.8 hPa WNW 11.3 km/h 24.1 km/h 80% 0 mm
02:59 6.7 °C 3.4 °C 994.8 hPa WNW 11.3 km/h 24.1 km/h 80% 0 mm
03:04 6.7 °C 3.5 °C 994.8 hPa WNW 11.3 km/h 22.5 km/h 80% 0 mm
03:09 6.7 °C 3.5 °C 994.8 hPa WNW 4.8 km/h 25.7 km/h 80% 0 mm
03:14 6.8 °C 3.6 °C 994.8 hPa NNW 12.9 km/h 24.1 km/h 80% 0 mm
03:19 6.8 °C 3.6 °C 994.8 hPa NW 14.5 km/h 27.4 km/h 80% 0 mm
03:24 6.8 °C 3.6 °C 994.8 hPa WNW 12.9 km/h 29 km/h 80% 0 mm
03:29 6.8 °C 3.6 °C 994.8 hPa WNW 12.9 km/h 29 km/h 80% 0 mm
03:34 6.9 °C 3.7 °C 994.8 hPa WNW 12.9 km/h 32.2 km/h 80% 0 mm
03:39 6.9 °C 3.7 °C 994.5 hPa NW 11.3 km/h 25.7 km/h 80% 0 mm
03:44 6.9 °C 3.7 °C 994.5 hPa WNW 12.9 km/h 27.4 km/h 80% 0 mm
03:49 6.8 °C 3.6 °C 994.5 hPa West 9.7 km/h 22.5 km/h 80% 0 mm
03:54 6.8 °C 3.8 °C 994.5 hPa WNW 9.7 km/h 20.9 km/h 81% 0 mm
03:59 6.8 °C 3.6 °C 994.5 hPa WNW 11.3 km/h 25.7 km/h 80% 0 mm
04:04 6.8 °C 3.6 °C 994.5 hPa WNW 12.9 km/h 25.7 km/h 80% 0 mm
04:09 6.8 °C 3.6 °C 994.5 hPa WNW 11.3 km/h 25.7 km/h 80% 0 mm
04:14 6.8 °C 3.6 °C 994.5 hPa West 16.1 km/h 24.1 km/h 80% 0 mm
04:19 6.9 °C 3.5 °C 994.5 hPa NW 9.7 km/h 29 km/h 79% 0 mm
04:24 6.9 °C 3.7 °C 994.8 hPa WNW 20.9 km/h 24.1 km/h 80% 0 mm
04:29 6.9 °C 3.5 °C 994.8 hPa NW 27.4 km/h 30.6 km/h 79% 0 mm
04:34 6.9 °C 3.5 °C 994.8 hPa West 17.7 km/h 32.2 km/h 79% 0 mm
04:39 6.8 °C 3.4 °C 994.8 hPa West 16.1 km/h 32.2 km/h 79% 0 mm
04:44 6.8 °C 3.4 °C 994.8 hPa WNW 16.1 km/h 32.2 km/h 79% 0 mm
04:49 6.8 °C 3.4 °C 995.1 hPa West 12.9 km/h 37 km/h 79% 0 mm
04:54 6.7 °C 3.3 °C 995.1 hPa NW 11.3 km/h 29 km/h 79% 0 mm
04:59 6.7 °C 3.1 °C 995.1 hPa West 14.5 km/h 30.6 km/h 78% 0 mm
05:04 6.6 °C 3 °C 995.1 hPa WNW 6.4 km/h 27.4 km/h 78% 0 mm
05:09 6.4 °C 2.9 °C 995.5 hPa West 16.1 km/h 30.6 km/h 78% 0 mm
05:14 6.4 °C 2.8 °C 995.5 hPa WNW 16.1 km/h 30.6 km/h 78% 0 mm
05:19 6.4 °C 2.8 °C 995.5 hPa West 16.1 km/h 30.6 km/h 78% 0 mm
05:24 6.4 °C 2.9 °C 995.8 hPa West 30.6 km/h 32.2 km/h 78% 0 mm
05:29 6.4 °C 2.8 °C 995.8 hPa West 12.9 km/h 30.6 km/h 78% 0 mm
05:34 6.4 °C 2.8 °C 995.8 hPa West 16.1 km/h 37 km/h 78% 0 mm
05:39 6.3 °C 2.8 °C 995.8 hPa WNW 17.7 km/h 40.2 km/h 78% 0 mm
05:44 6.3 °C 2.6 °C 995.8 hPa WNW 17.7 km/h 40.2 km/h 77% 0 mm
05:49 6.3 °C 2.4 °C 996.2 hPa WNW 17.7 km/h 35.4 km/h 76% 0 mm
05:54 6.3 °C 2.2 °C 996.2 hPa West 12.9 km/h 41.8 km/h 75% 0 mm
05:59 6.3 °C 2.1 °C 996.2 hPa WNW 16.1 km/h 46.7 km/h 74% 0 mm
06:04 6.3 °C 1.8 °C 996.2 hPa WSW 17.7 km/h 38.6 km/h 73% 0 mm
06:09 6.3 °C 1.8 °C 996.2 hPa West 8 km/h 24.1 km/h 73% 0 mm
06:14 6.3 °C 1.6 °C 996.2 hPa WNW 14.5 km/h 35.4 km/h 72% 0 mm
06:19 6.3 °C 1.6 °C 996.2 hPa West 17.7 km/h 37 km/h 72% 0 mm
06:24 6.3 °C 1.4 °C 996.2 hPa West 24.1 km/h 33.8 km/h 71% 0 mm
06:29 6.2 °C 1.3 °C 996.2 hPa WNW 16.1 km/h 37 km/h 71% 0 mm
06:34 6.2 °C 1.3 °C 996.2 hPa West 20.9 km/h 29 km/h 71% 0 mm
06:39 6.2 °C 1.2 °C 996.5 hPa NNW 12.9 km/h 32.2 km/h 70% 0 mm
06:44 6.2 °C 1.3 °C 996.5 hPa West 17.7 km/h 43.5 km/h 71% 0 mm
06:49 6.1 °C 1.2 °C 996.5 hPa West 17.7 km/h 43.5 km/h 71% 0 mm
06:54 6 °C 1.3 °C 996.5 hPa West 16.1 km/h 35.4 km/h 72% 0 mm
06:59 6 °C 1.3 °C 996.5 hPa WNW 9.7 km/h 29 km/h 72% 0 mm
07:04 5.9 °C 1.3 °C 996.5 hPa WSW 14.5 km/h 40.2 km/h 72% 0 mm
07:09 5.8 °C 1.2 °C 996.8 hPa WNW 20.9 km/h 32.2 km/h 72% 0 mm
07:14 5.8 °C 1.2 °C 996.8 hPa West 14.5 km/h 40.2 km/h 72% 0 mm
07:19 5.7 °C 1.1 °C 996.8 hPa West 16.1 km/h 40.2 km/h 72% 0 mm
07:24 5.6 °C 1.2 °C 996.8 hPa West 12.9 km/h 27.4 km/h 73% 0 mm
07:29 5.5 °C 1.1 °C 996.8 hPa West 24.1 km/h 33.8 km/h 73% 0 mm
07:34 5.4 °C 0.9 °C 997.2 hPa West 11.3 km/h 33.8 km/h 73% 0 mm
07:39 5.3 °C 0.9 °C 997.2 hPa West 12.9 km/h 30.6 km/h 73% 0 mm
07:44 5.3 °C 0.8 °C 997.2 hPa West 16.1 km/h 30.6 km/h 73% 0 mm
07:49 5.3 °C 0.8 °C 997.5 hPa West 16.1 km/h 32.2 km/h 73% 0 mm
07:54 5.3 °C 0.8 °C 997.5 hPa West 16.1 km/h 32.2 km/h 73% 0 mm
07:59 5.2 °C 0.7 °C 997.5 hPa West 9.7 km/h 37 km/h 73% 0 mm
08:04 5.1 °C 0.8 °C 997.9 hPa West 11.3 km/h 37 km/h 74% 0 mm
08:09 5 °C 0.7 °C 997.9 hPa West 4.8 km/h 24.1 km/h 74% 0 mm
08:14 4.9 °C 0.9 °C 997.9 hPa West 4.8 km/h 22.5 km/h 75% 0 mm
08:19 4.9 °C 0.8 °C 997.9 hPa West 9.7 km/h 22.5 km/h 75% 0 mm
08:24 4.9 °C 0.8 °C 998.2 hPa West 11.3 km/h 24.1 km/h 75% 0 mm
08:29 4.9 °C 0.9 °C 998.2 hPa West 11.3 km/h 24.1 km/h 75% 0 mm
08:34 4.9 °C 0.9 °C 998.2 hPa West 8 km/h 24.1 km/h 75% 0 mm
08:39 5 °C 0.7 °C 998.5 hPa West 8 km/h 24.1 km/h 74% 0 mm
08:44 5.1 °C 0.8 °C 998.5 hPa West 14.5 km/h 25.7 km/h 74% 0 mm
08:49 5.1 °C 0.7 °C 998.5 hPa West 14.5 km/h 19.3 km/h 73% 0 mm
08:54 5.3 °C 0.8 °C 998.5 hPa WSW 11.3 km/h 27.4 km/h 73% 0 mm
08:59 5.4 °C 0.7 °C 998.5 hPa WSW 12.9 km/h 27.4 km/h 72% 0 mm
09:04 5.6 °C 0.9 °C 998.5 hPa WSW 12.9 km/h 27.4 km/h 72% 0 mm
09:09 5.9 °C 1.1 °C 998.5 hPa West 4.8 km/h 20.9 km/h 71% 0 mm
09:14 6.2 °C 1.2 °C 998.5 hPa SSW 9.7 km/h 29 km/h 70% 0 mm
09:19 6.4 °C 0.9 °C 998.5 hPa WSW 22.5 km/h 29 km/h 68% 0 mm
09:24 6.5 °C 0.8 °C 998.5 hPa SW 12.9 km/h 30.6 km/h 67% 0 mm
09:29 6.6 °C 0.7 °C 998.5 hPa West 14.5 km/h 32.2 km/h 66% 0 mm
09:39 6.8 °C 0.9 °C 998.9 hPa WSW 9.7 km/h 29 km/h 66% 0 mm
09:44 6.7 °C 0.8 °C 998.9 hPa WNW 11.3 km/h 33.8 km/h 66% 0 mm
09:49 6.7 °C 0.8 °C 998.9 hPa SSW 11.3 km/h 41.8 km/h 66% 0 mm
09:54 6.8 °C 0.9 °C 998.9 hPa NW 12.9 km/h 35.4 km/h 66% 0 mm
09:59 6.9 °C 0.9 °C 999.2 hPa West 14.5 km/h 35.4 km/h 66% 0 mm
10:04 7.1 °C 1.1 °C 999.2 hPa West 14.5 km/h 30.6 km/h 66% 0 mm
10:09 7.2 °C 1.1 °C 999.5 hPa West 14.5 km/h 30.6 km/h 65% 0 mm
10:19 7.3 °C 0.7 °C 999.5 hPa West 24.1 km/h 43.5 km/h 63% 0 mm
10:24 7.6 °C 0.9 °C 999.5 hPa West 8 km/h 29 km/h 63% 0 mm
10:29 7.7 °C 0.7 °C 999.5 hPa SW 14.5 km/h 30.6 km/h 61% 0 mm
10:34 7.8 °C 0.8 °C 999.5 hPa West 14.5 km/h 33.8 km/h 61% 0 mm
10:39 8.1 °C 0.8 °C 999.5 hPa West 16.1 km/h 33.8 km/h 60% 0 mm
10:44 8.4 °C 1.3 °C 999.5 hPa West 16.1 km/h 33.8 km/h 61% 0 mm
10:49 8.5 °C 1.2 °C 999.5 hPa West 19.3 km/h 32.2 km/h 60% 0 mm
10:54 8.2 °C 0.4 °C 999.9 hPa West 20.9 km/h 41.8 km/h 58% 0 mm
10:59 8.1 °C 0.8 °C 999.9 hPa SW 3.2 km/h 40.2 km/h 60% 0 mm
11:04 8.2 °C 0.6 °C 999.5 hPa West 20.9 km/h 45.1 km/h 59% 0 mm
11:09 8.3 °C 0.9 °C 999.9 hPa West 19.3 km/h 45.1 km/h 60% 0 mm
11:14 8.2 °C 1.1 °C 999.9 hPa West 17.7 km/h 41.8 km/h 61% 0 mm
11:19 7.9 °C 1.1 °C 999.9 hPa NNW 16.1 km/h 29 km/h 62% 0 mm
11:24 7.7 °C 0.9 °C 999.9 hPa WSW 9.7 km/h 45.1 km/h 62% 0 mm
11:29 7.7 °C 1.1 °C 999.9 hPa WNW 22.5 km/h 32.2 km/h 63% 0 mm
11:34 7.7 °C 1.3 °C 999.9 hPa West 17.7 km/h 37 km/h 64% 0 mm
11:39 7.8 °C 1.4 °C 999.9 hPa West 17.7 km/h 37 km/h 64% 0 mm
11:44 8.1 °C 1.4 °C 999.9 hPa West 16.1 km/h 32.2 km/h 63% 0 mm
11:49 8.3 °C 1.9 °C 999.9 hPa West 14.5 km/h 32.2 km/h 64% 0 mm
11:54 8.6 °C 1.9 °C 999.9 hPa WSW 6.4 km/h 27.4 km/h 63% 0 mm
11:59 8.7 °C 2.1 °C 999.9 hPa WSW 12.9 km/h 32.2 km/h 63% 0 mm
12:04 8.9 °C 2.2 °C 999.9 hPa WSW 14.5 km/h 25.7 km/h 63% 0 mm
12:09 8.8 °C 2.2 °C 999.9 hPa South 22.5 km/h 33.8 km/h 63% 0 mm
12:14 8.9 °C 2.2 °C 999.5 hPa West 14.5 km/h 33.8 km/h 63% 0 mm
12:19 9.3 °C 2.7 °C 999.5 hPa West 14.5 km/h 32.2 km/h 63% 0 mm
12:24 9.3 °C 2.4 °C 999.5 hPa WSW 9.7 km/h 29 km/h 62% 0 mm
12:29 9.2 °C 2.6 °C 999.5 hPa WSW 9.7 km/h 25.7 km/h 63% 0 mm
12:34 9.3 °C 2.6 °C 999.2 hPa WNW 22.5 km/h 30.6 km/h 63% 0 mm
12:39 9.3 °C 2.7 °C 999.2 hPa West 20.9 km/h 32.2 km/h 63% 0 mm
12:44 9.2 °C 2.5 °C 999.2 hPa West 16.1 km/h 32.2 km/h 63% 0 mm
12:49 9.1 °C 2.6 °C 999.2 hPa West 14.5 km/h 29 km/h 64% 0 mm
12:54 9 °C 2.8 °C 998.9 hPa SW 14.5 km/h 30.6 km/h 65% 0 mm
12:59 8.9 °C 2.9 °C 998.9 hPa WNW 12.9 km/h 30.6 km/h 66% 0 mm
13:04 9.1 °C 3.4 °C 999.2 hPa West 17.7 km/h 32.2 km/h 68% 0 mm
13:09 9.1 °C 3.9 °C 998.9 hPa West 16.1 km/h 38.6 km/h 70% 0 mm
13:14 9.1 °C 3.9 °C 998.9 hPa SW 17.7 km/h 43.5 km/h 70% 0 mm
13:19 9 °C 3.6 °C 998.9 hPa SW 19.3 km/h 43.5 km/h 69% 0 mm
13:24 8.9 °C 3.3 °C 999.2 hPa WSW 20.9 km/h 46.7 km/h 68% 0 mm
13:29 8.8 °C 3.2 °C 999.2 hPa WSW 22.5 km/h 46.7 km/h 68% 0 mm
13:34 8.8 °C 3.4 °C 998.9 hPa WSW 19.3 km/h 38.6 km/h 69% 0 mm
13:39 8.7 °C 3.5 °C 999.2 hPa SW 17.7 km/h 37 km/h 70% 0 mm
13:44 8.6 °C 3.2 °C 999.2 hPa SW 17.7 km/h 35.4 km/h 69% 0 mm
13:49 8.5 °C 3.1 °C 999.2 hPa SSW 24.1 km/h 35.4 km/h 69% 0 mm
13:54 8.5 °C 2.9 °C 998.9 hPa WSW 19.3 km/h 38.6 km/h 68% 0 mm
13:59 8.4 °C 2.7 °C 999.2 hPa South 16.1 km/h 35.4 km/h 67% 0 mm
14:04 8.4 °C 3.1 °C 999.2 hPa WSW 24.1 km/h 49.9 km/h 69% 0 mm
14:09 8.3 °C 2.7 °C 999.2 hPa SW 8 km/h 40.2 km/h 68% 0 mm
14:14 8.2 °C 2.6 °C 999.2 hPa South 12.9 km/h 41.8 km/h 68% 0 mm
14:19 8.2 °C 2.4 °C 999.2 hPa WSW 27.4 km/h 46.7 km/h 67% 0 mm
14:24 8.2 °C 2.6 °C 999.2 hPa WSW 17.7 km/h 46.7 km/h 68% 0 mm
14:29 8.1 °C 2.9 °C 999.5 hPa WSW 16.1 km/h 35.4 km/h 70% 0 mm
14:34 8 °C 2.7 °C 999.5 hPa WSW 17.7 km/h 40.2 km/h 69% 0 mm
14:39 8.1 °C 2.3 °C 999.5 hPa WSW 19.3 km/h 40.2 km/h 67% 0 mm
14:44 8 °C 2.2 °C 999.5 hPa South 16.1 km/h 35.4 km/h 67% 0 mm
14:54 7.9 °C 2.3 °C 999.5 hPa SSW 22.5 km/h 41.8 km/h 68% 0 mm
14:59 7.8 °C 2.5 °C 999.5 hPa WSW 17.7 km/h 33.8 km/h 69% 0 mm
15:04 7.7 °C 2.9 °C 999.5 hPa SW 14.5 km/h 38.6 km/h 72% 0 mm
15:09 7.4 °C 3.1 °C 999.5 hPa SW 9.7 km/h 38.6 km/h 74% 0 mm
15:14 7.3 °C 3.2 °C 999.9 hPa SW 11.3 km/h 37 km/h 75% 0 mm
15:19 7.3 °C 3.1 °C 999.9 hPa WSW 29 km/h 45.1 km/h 75% 0 mm
15:24 7.3 °C 3.3 °C 999.9 hPa West 27.4 km/h 37 km/h 76% 0 mm
15:29 7.3 °C 3.6 °C 999.9 hPa WSW 19.3 km/h 37 km/h 77% 0.25 mm
15:34 7.3 °C 3.7 °C 999.9 hPa WSW 17.7 km/h 37 km/h 78% 0.25 mm
15:39 7.2 °C 3.4 °C 1000.2 hPa WSW 19.3 km/h 41.8 km/h 77% 0.25 mm
15:44 7.2 °C 3.4 °C 1000.2 hPa WSW 19.3 km/h 43.5 km/h 77% 0.25 mm
15:54 7.1 °C 3.7 °C 1000.6 hPa WSW 11.3 km/h 35.4 km/h 79% 0.51 mm
15:59 7 °C 3.6 °C 1000.6 hPa SW 22.5 km/h 33.8 km/h 79% 0.76 mm
16:04 7.1 °C 3.7 °C 1000.6 hPa WSW 27.4 km/h 45.1 km/h 79% 0.76 mm
16:09 7.1 °C 3.7 °C 1000.6 hPa SW 14.5 km/h 43.5 km/h 79% 0.76 mm
16:14 7.1 °C 3.7 °C 1000.6 hPa SSW 8 km/h 40.2 km/h 79% 1.02 mm
16:19 7 °C 3.6 °C 1000.6 hPa WSW 11.3 km/h 29 km/h 79% 1.02 mm
16:24 6.9 °C 3.5 °C 1000.6 hPa SSW 9.7 km/h 32.2 km/h 79% 1.27 mm
16:29 6.8 °C 3.6 °C 1000.6 hPa SW 12.9 km/h 27.4 km/h 80% 1.02 mm
16:34 6.8 °C 3.7 °C 1000.9 hPa WSW 14.5 km/h 35.4 km/h 81% 1.27 mm
16:39 6.7 °C 3.7 °C 1000.9 hPa WSW 16.1 km/h 45.1 km/h 81% 1.52 mm
16:44 6.6 °C 3.8 °C 1000.9 hPa SW 17.7 km/h 45.1 km/h 82% 1.78 mm
16:49 6.6 °C 3.7 °C 1000.9 hPa SW 17.7 km/h 45.1 km/h 82% 2.03 mm
16:54 6.4 °C 3.8 °C 1000.9 hPa SW 17.7 km/h 37 km/h 83% 2.29 mm
17:04 6.4 °C 3.9 °C 1000.9 hPa West 6.4 km/h 24.1 km/h 84% 2.54 mm
17:09 6.4 °C 3.9 °C 1001.2 hPa WSW 14.5 km/h 35.4 km/h 84% 3.05 mm
17:14 6.3 °C 3.8 °C 1001.2 hPa SW 12.9 km/h 33.8 km/h 84% 3.05 mm
17:19 6.2 °C 3.8 °C 1001.2 hPa West 22.5 km/h 40.2 km/h 85% 3.56 mm
17:24 6.2 °C 3.8 °C 1001.6 hPa West 9.7 km/h 27.4 km/h 85% 3.56 mm
17:29 6.2 °C 3.8 °C 1001.6 hPa SW 22.5 km/h 35.4 km/h 85% 4.06 mm
17:34 6.1 °C 3.8 °C 1001.6 hPa WNW 22.5 km/h 41.8 km/h 85% 4.32 mm
17:39 6 °C 3.8 °C 1001.6 hPa WSW 17.7 km/h 41.8 km/h 86% 4.57 mm
17:44 5.9 °C 3.8 °C 1001.9 hPa WSW 14.5 km/h 32.2 km/h 86% 5.33 mm
17:49 5.6 °C 3.4 °C 1001.9 hPa WSW 14.5 km/h 40.2 km/h 86% 6.1 mm
17:54 5.5 °C 3.3 °C 1002.3 hPa WSW 14.5 km/h 40.2 km/h 86% 6.6 mm
18:04 5.3 °C 3.2 °C 1002.3 hPa WSW 16.1 km/h 33.8 km/h 86% 8.64 mm
18:09 5.1 °C 2.9 °C 1002.6 hPa WSW 11.3 km/h 32.2 km/h 86% 8.89 mm
18:14 4.9 °C 2.7 °C 1002.6 hPa WSW 16.1 km/h 41.8 km/h 86% 9.91 mm
18:19 4.9 °C 2.9 °C 1002.6 hPa WNW 14.5 km/h 27.4 km/h 87% 10.16 mm
18:24 5.1 °C 3.1 °C 1002.9 hPa WNW 12.9 km/h 33.8 km/h 87% 10.67 mm
18:29 5.2 °C 3.3 °C 1002.9 hPa West 20.9 km/h 24.1 km/h 88% 10.92 mm
18:34 5.2 °C 3.4 °C 1002.9 hPa NW 11.3 km/h 27.4 km/h 88% 11.18 mm
18:39 5.3 °C 3.4 °C 1003.3 hPa West 14.5 km/h 24.1 km/h 88% 11.18 mm
18:44 5.4 °C 3.6 °C 1003.3 hPa SW 16.1 km/h 27.4 km/h 88% 10.41 mm
18:49 5.6 °C 3.7 °C 1003.3 hPa WSW 14.5 km/h 33.8 km/h 88% 9.65 mm
18:54 5.5 °C 3.7 °C 1003.3 hPa WSW 17.7 km/h 40.2 km/h 88% 9.14 mm
18:59 5.5 °C 3.7 °C 1003.3 hPa WSW 17.7 km/h 40.2 km/h 88% 8.13 mm
19:04 5.6 °C 3.8 °C 1003.3 hPa WSW 14.5 km/h 33.8 km/h 88% 7.11 mm
19:09 5.7 °C 3.8 °C 1003.3 hPa WSW 12.9 km/h 32.2 km/h 88% 6.86 mm
19:14 5.7 °C 3.8 °C 1003.6 hPa WSW 12.9 km/h 33.8 km/h 88% 6.1 mm
19:19 5.3 °C 3.5 °C 1003.6 hPa WSW 12.9 km/h 27.4 km/h 88% 6.6 mm
19:24 5.4 °C 3.6 °C 1003.6 hPa West 12.9 km/h 24.1 km/h 88% 5.84 mm
19:29 5.4 °C 3.6 °C 1003.6 hPa West 11.3 km/h 24.1 km/h 88% 5.84 mm
19:34 5.5 °C 3.7 °C 1003.6 hPa West 14.5 km/h 24.1 km/h 88% 5.84 mm
19:39 5.6 °C 3.7 °C 1003.6 hPa SW 8 km/h 20.9 km/h 88% 5.33 mm
19:44 5.6 °C 3.7 °C 1003.6 hPa SW 4.8 km/h 20.9 km/h 88% 5.84 mm
19:49 5.6 °C 3.7 °C 1003.9 hPa WSW 11.3 km/h 25.7 km/h 88% 6.6 mm
19:54 5.5 °C 3.7 °C 1003.9 hPa WSW 11.3 km/h 25.7 km/h 88% 7.11 mm
19:59 5.4 °C 3.6 °C 1003.9 hPa West 11.3 km/h 24.1 km/h 88% 7.62 mm
20:04 5.2 °C 3.4 °C 1003.9 hPa West 11.3 km/h 22.5 km/h 88% 7.62 mm
20:09 5.2 °C 3.4 °C 1003.9 hPa West 8 km/h 20.9 km/h 88% 7.62 mm
20:14 5.2 °C 3.4 °C 1003.9 hPa West 6.4 km/h 11.3 km/h 88% 7.62 mm
20:19 5.3 °C 3.6 °C 1003.9 hPa WNW 4.8 km/h 19.3 km/h 89% 6.6 mm
20:24 5.3 °C 3.7 °C 1003.9 hPa West 8 km/h 19.3 km/h 89% 6.86 mm
20:29 5.4 °C 3.8 °C 1004.3 hPa WSW 8 km/h 19.3 km/h 89% 6.1 mm
20:34 5.5 °C 3.8 °C 1003.9 hPa WSW 6.4 km/h 17.7 km/h 89% 5.33 mm
20:39 5.5 °C 3.7 °C 1004.3 hPa SW 8 km/h 19.3 km/h 88% 5.33 mm
20:44 5.2 °C 3.4 °C 1004.6 hPa SW 11.3 km/h 19.3 km/h 88% 5.33 mm
20:49 4.9 °C 3.1 °C 1004.3 hPa WSW 9.7 km/h 20.9 km/h 88% 4.57 mm
20:54 4.9 °C 3.3 °C 1004.3 hPa SSW 11.3 km/h 29 km/h 89% 3.81 mm
20:59 4.9 °C 3.3 °C 1004.3 hPa SSW 11.3 km/h 29 km/h 89% 3.56 mm
21:04 4.8 °C 3.2 °C 1004.3 hPa SSW 9.7 km/h 25.7 km/h 89% 3.3 mm
21:09 4.9 °C 3.2 °C 1004.3 hPa SSW 11.3 km/h 25.7 km/h 89% 3.05 mm
21:14 4.9 °C 3.3 °C 1004.3 hPa SSW 11.3 km/h 25.7 km/h 89% 2.79 mm
21:19 5.1 °C 3.4 °C 1004.6 hPa SSW 8 km/h 22.5 km/h 89% 2.79 mm
21:24 5.1 °C 3.4 °C 1004.6 hPa SSE 33.8 km/h 33.8 km/h 89% 2.54 mm
21:29 5.2 °C 3.5 °C 1004.6 hPa SSW 12.9 km/h 33.8 km/h 89% 2.54 mm
21:34 5.3 °C 3.8 °C 1004.6 hPa SW 14.5 km/h 33.8 km/h 90% 2.54 mm
21:39 5.4 °C 3.7 °C 1004.6 hPa SW 6.4 km/h 22.5 km/h 89% 2.54 mm
21:44 5.2 °C 3.6 °C 1005 hPa SSW 6.4 km/h 25.7 km/h 89% 2.79 mm
21:49 4.7 °C 2.8 °C 1005 hPa SSW 4.8 km/h 14.5 km/h 88% 2.54 mm
21:54 4.3 °C 2.4 °C 1005 hPa SE 3.2 km/h 14.5 km/h 88% 2.79 mm
21:59 4.1 °C 2.2 °C 1005 hPa South 4.8 km/h 14.5 km/h 88% 2.29 mm
22:04 4.1 °C 2.4 °C 1005 hPa South 1.6 km/h 9.7 km/h 89% 2.29 mm
22:09 4 °C 2.3 °C 1005.3 hPa Calm   6.4 km/h 89% 2.29 mm
22:14 4.2 °C 2.7 °C 1005.6 hPa West 3.2 km/h 11.3 km/h 90% 2.03 mm
22:19 4.6 °C 3.1 °C 1005.6 hPa WNW 8 km/h 22.5 km/h 90% 1.78 mm
22:24 4.8 °C 3.1 °C 1005.6 hPa West 12.9 km/h 16.1 km/h 89% 2.03 mm
22:29 4.9 °C 3.2 °C 1005.6 hPa WSW 11.3 km/h 16.1 km/h 89% 2.03 mm
22:34 5 °C 3 °C 1005.6 hPa West 8 km/h 16.1 km/h 87% 2.03 mm
22:39 5.1 °C 2.8 °C 1006 hPa West 9.7 km/h 19.3 km/h 85% 2.03 mm
22:44 5.2 °C 2.5 °C 1006 hPa West 9.7 km/h 24.1 km/h 83% 1.02 mm
22:49 5.3 °C 2.2 °C 1006 hPa WNW 16.1 km/h 29 km/h 80% 0.76 mm
22:54 5.4 °C 1.9 °C 1006 hPa NW 11.3 km/h 20.9 km/h 78% 0.51 mm
22:59 5.5 °C 1.6 °C 1006 hPa WNW 4.8 km/h 24.1 km/h 76% 0.51 mm
23:04 5.6 °C 1.7 °C 1006 hPa West 9.7 km/h 24.1 km/h 76% 0.51 mm
23:09 5.6 °C 1.4 °C 1006.3 hPa West 8 km/h 16.1 km/h 75% 0.25 mm
23:24 5.6 °C 1.3 °C 1006.3 hPa West 11.3 km/h 16.1 km/h 74% 0 mm
23:29 5.6 °C 1.3 °C 1006.3 hPa West 6.4 km/h 16.1 km/h 74% 0 mm
23:30 5.6 °C 1.3 °C 1006.3 hPa SW 11.3 km/h 16.1 km/h 74% 0 mm
23:34 5.7 °C 1.2 °C 1006.7 hPa West 8 km/h 20.9 km/h 73% 0 mm
23:39 5.8 °C 1.3 °C 1006.7 hPa WSW 9.7 km/h 20.9 km/h 73% 0 mm
23:49 5.8 °C 1.4 °C 1006.7 hPa WSW 3.2 km/h 14.5 km/h 73% 0 mm
23:54 5.8 °C 1.4 °C 1006.7 hPa WSW 4.8 km/h 14.5 km/h 73% 0 mm
23:59 5.9 °C 1.4 °C 1006.7 hPa WNW 6.4 km/h 9.7 km/h 73% 0 mm
Buffalo, New York, USA
Compliments of Weather Underground - 2.5 mb